CZ-4C DEB, 44617

Orbit data source: Space-Track

CZ-4C DEB, 44617 is space debris in LEO originally from a launch on Tue, 10 Apr 2018 UTC launched from the Taiyaun Space Center, China (TSC). Debris objects in space refer to the collection of defunct objects orbiting the Earth. Examples of debris include non-operational satellites, rocket bodies, and fragments generated from explosions, collisions, or faulty payload assembly.

Loading next visibility...
Identifier
44617, 2018-034J
Orbit
LEO
Last TLE update
4 days ago
Origin
Manufacturer
Unknown
Mission
Spacecraft
Bus & Motor
Unknown
Mass
Unknown
Launch date (UTC)
2018-04-10 (7 years ago)
Launch vehicle
Unknown
Launch site
Taiyaun Space Center, China (TSC)
Object type
Payload
Rocket body
Debris
Shape & HBR
Unknown
Radar Cross Section
Small (<0.1 m²)

Expand to show TLE details & history

TLE from 4 days ago
0 CZ-4C DEB
1 44617U 18034J   25125.67609354 -.00000040  00000-0  77353-4 0  9997
2 44617  63.3977 110.2393 0216431   6.4338 353.9386 13.40985589339597
Epoch: 2025-05-05T16:13Z
Definitive object data (Epoch: 2025-05-05T16:13:34.481Z)
Latitude
0.00003°
Longitude
3.05941°
Altitude
946.332 km
Speed
7.458 km/s
True Right ascension
07h 20m 57s
True Declination
0° 00' 00"
Sunlit
Object was in daylight at TLE epoch
Visualization TLE readout
Latitude
8.16539°
Longitude
169.73927°
Altitude
1,262.414 km
Speed
7.15 km/s
Apparent Right ascension
21h 09m 08s
Apparent Declination
-27° 17' 51"
Sunlit
Object is in daylight
Visualization observer readout
Local Sidereal Time
15:07:32
Azimuth
111.375° ESE
Elevation
-17.397°
Doppler factor
1
Orbital elements
Apogee altitude
1,266.388 km
Perigee altitude
942.495 km
Semi-major axis
7,482.579 km
Eccentricity
0.0216431
Inclination
63.3977°
RAAN
110.2393°
Arg. of periapsis
6.4338°
True anomaly
353.66948°
Mean anomaly
353.9386°
Eccentric anomaly
353.80478°
Mean motion
3.35325 °/min
BSTAR
0.000077353
Orbital period
107.36 mins
Loading maneuver chart data...
Loading SW <> Apogee altitude chart data...
Loading historical data...
Loading historical data...
Loading historical data...
Loading historical data...
Loading historical data...
Loading historical data...
Loading historical data...

CZ-4C DEB Visibility forecast

Observer location: undefined°, undefined°

Span
Click to sort rows by Start time (UTC) header in descending order
Start Az.
Max El. time (UTC)
Max El. Az.
Max El.
End time (UTC)
End Az.
14 mins2025-05-09 08:27:37.551Z331.136° NNW2025-05-09 08:33:37.551Z34.838° NE43.02°2025-05-09 08:41:37.551Z137.395° SSE
9 mins2025-05-09 10:20:37.551Z289.675° WNW2025-05-09 10:24:37.551Z248.15° W23.451°2025-05-09 10:29:37.551Z202.954° SW
6 mins2025-05-09 22:22:37.551Z135.343° SSE2025-05-09 22:25:37.551Z102.594° ESE16.238°2025-05-09 22:28:37.551Z72.63° E
11 mins2025-05-10 00:10:37.551Z220.509° SW2025-05-10 00:15:37.551Z338.504° N43.931°2025-05-10 00:21:37.551Z31.533° NE
7 mins2025-05-10 02:04:37.551Z298.005° NW2025-05-10 02:07:37.551Z331.331° NNW18.028°2025-05-10 02:11:37.551Z9.761° NNE
6 mins2025-05-10 05:53:37.551Z3.903° NNE2025-05-10 05:55:37.551Z22.056° NNE14.407°2025-05-10 05:59:37.551Z56.28° ENE
|